Location: Mercogliano
(40.9167°N, 14.7333°E)
Time: 08:18:21
(UTC+00:00)

Cosmos 2150 Rocket - Pass Details

Date: 26 January 2021
Orbit: 748 x 808 km, 74.0° (Epoch: 04 March)

Event Time Altitude Azimuth Distance (km) Brightness Sun altitude
Exits shadow 05:06:30 - 334° (NNW) 2,810 6.6 -13.4°
Reaches altitude 10° 05:07:42 10° 332° (NNW) 2,357 6.1 -13.2°
Maximum altitude 05:12:55 54° 256° (WSW) 959 4.2 -12.2°
Drops below altitude 10° 05:18:11 10° 180° (S) 2,372 6.7 -11.3°
Sets 05:20:38 0° 175° (S) 3,304 7.6 -10.8°
